Location: Caltech
(34.1382°N, 118.1253°W)
Time: 07:26:54
(UTC-07:00)

MaSat-1 - Visible Passes

Search period start: 23 April 2014 00:00
Search period end: 03 May 2014 00:00
Orbit: 290 x 862 km, 69.5° (Epoch: 23 April)

Date Brightness Start Highest point End Pass type
(mag) Time Alt. Az. Time Alt. Az. Time Alt. Az.
23 Apr ? 21:04:10 10° WSW 21:06:30 22° WNW 21:08:39 10° N visible
24 Apr ? 05:30:11 10° NNE 05:32:13 15° ENE 05:34:28 10° E visible
24 Apr ? 21:08:35 10° W 21:09:49 12° WNW 21:11:00 10° NW visible
25 Apr ? 05:32:39 10° N 05:35:26 25° ENE 05:38:40 10° ESE visible
26 Apr ? 05:35:11 10° N 05:38:22 42° ENE 05:42:09 10° SE visible
27 Apr ? 05:37:37 10° NNW 05:41:00 75° ENE 05:45:04 10° SSE visible
29 Apr ? 04:06:06 10° NE 04:07:14 11° ENE 04:08:24 10° E visible
30 Apr ? 04:06:40 10° NNE 04:09:06 18° ENE 04:11:48 10° ESE visible
01 May ? 04:07:38 10° N 04:10:39 27° ENE 04:14:10 10° SE visible
02 May ? 04:08:33 10° N 04:11:55 42° ENE 04:15:55 10° SE visible
